Location: Unspecified
(0.0000°N, 0.0000°E)
Time: 00:42:14
(UTC+00:00)

Envisat - Visible Passes

Search period start: 16 September 2019 00:00
Search period end: 26 September 2019 00:00
Orbit: 764 x 766 km, 98.1° (Epoch: 15 September)

Date Brightness Start Highest point End Pass type
(mag) Time Alt. Az. Time Alt. Az. Time Alt. Az.
16 Sep 3.1 18:21:05 10° SSE 18:26:03 55° ENE 18:30:59 10° N visible
17 Sep 5.3 19:24:04 10° SSW 19:28:08 24° WSW 19:32:12 10° NW visible
18 Sep 3.3 18:46:25 10° S 18:51:29 70° WSW 18:56:31 10° NNW visible
19 Sep 3.4 18:10:05 10° SSE 18:14:49 40° ENE 18:19:32 10° N visible
19 Sep 6.1 19:51:57 10° WSW 19:53:32 11° WSW 19:55:07 10° W visible
20 Sep 4.7 19:12:23 10° SSW 19:16:55 33° WSW 19:21:26 10° NW visible
21 Sep 3.0 18:35:10 10° SSE 18:40:16 85° ENE 18:45:19 10° N visible
22 Sep 5.9 19:39:18 10° SW 19:42:20 16° WSW 19:45:21 10° WNW visible
23 Sep 4.1 19:00:52 10° S 19:05:41 45° WSW 19:10:30 10° NNW visible
24 Sep 3.0 18:24:01 10° SSE 18:29:02 62° ENE 18:34:01 10° N visible
25 Sep 5.5 19:27:17 10° SSW 19:31:06 22° WSW 19:34:56 10° NW visible
